This demonstration page uses our WeatherBlox Daily Observations layout. Learn more.

Left ArrowRight Arrow

38.20091, -84.87328

Hourly Observations for September 4, 2022

Temp ( °F °C ) Dew Point ( °F °C ) Humidity (%) Winds ( mph kmh ) Pressure ( in mb ) Visibility ( mi km ) Precip ( " mm )
12:53 am 00:53 Mostly Clear 69 20.6 67 19.4 93 93 SE 6 9 30.04 1017 10 16 0.01 0.25
1:53 am 01:53 Mostly Clear 69 20.6 68 20 96 96 SSE 7 11 30.03 1017 10 16 0.00 0.00
2:53 am 02:53 Clear 69 20.6 67 19.4 93 93 SSE 5 7 30.02 1017 10 16 0.00 0.00
3:53 am 03:53 Clear 69 20.6 67 19.4 93 93 SSE 3 6 30.02 1017 10 16 0.00 0.00
4:53 am 04:53 Clear 69 20.6 67 19.4 93 93 SSW 3 6 30.03 1017 10 16 0.00 0.00
5:46 am 05:46 Mostly Cloudy 69 20.6 67 19.4 93 93 Calm 30.03 1017 10 16 0.00 0.00
5:53 am 05:53 Mostly Cloudy 69 20.6 67 19.4 93 93 Calm 30.02 1017 10 16 0.00 0.00
6:02 am 06:02 Cloudy 68 20 67 19.4 96 96 Calm 30.03 1017 10 16 0.00 0.00
6:30 am 06:30 Cloudy 69 20.6 67 19.4 93 93 Calm 30.03 1017 10 16 0.00 0.00
6:53 am 06:53 Mostly Cloudy 69 20.6 68 20 96 96 Calm 30.03 1017 8 13 0.00 0.00
7:12 am 07:12 Cloudy with Mist and Fog 68 20 67 19.4 96 96 ESE 5 7 30.04 1017 2 3 0.00 0.00
7:19 am 07:19 Cloudy with Mist and Fog 69 20.6 68 20 96 96 E 5 7 30.04 1017 1 1 0.00 0.00
7:30 am 07:30 Partly Cloudy with Fog 69 20.6 68 20 96 96 Calm 30.05 1018 0 0 0.00 0.00
7:53 am 07:53 Partly Cloudy with Fog 69 20.6 69 20.6 100 100 E 3 6 30.06 1018 0 0 0.00 0.00
8:26 am 08:26 Partly Cloudy with Mist and Fog 70 21.1 69 20.6 97 97 SE 3 6 30.06 1018 1 1 0.00 0.00
8:30 am 08:30 Cloudy with Mist and Fog 70 21.1 69 20.6 97 97 SSE 3 6 30.06 1018 1 2 0.00 0.00
8:35 am 08:35 Cloudy with Mist and Fog 70 21.1 70 21.1 100 100 SSE 3 6 30.06 1018 3 5 0.00 0.00
8:53 am 08:53 Cloudy 71 21.7 70 21.1 96 96 SSE 3 6 30.06 1018 10 16 0.00 0.00
9:53 am 09:53 Cloudy 73 22.8 70 21.1 90 90 S 6 9 30.06 1018 10 16 0.00 0.00
10:01 am 10:01 Cloudy 73 22.8 70 21.1 90 90 SSE 6 9 30.05 1018 10 16 0.00 0.00
10:53 am 10:53 Cloudy 74 23.3 69 20.6 85 85 SE 7 11 30.06 1018 10 16 0.00 0.00
11:53 am 11:53 Mostly Cloudy 77 25 70 21.1 79 79 SE 3 6 30.06 1018 10 16 0.00 0.00
12:53 pm 12:53 Mostly Cloudy 79 26.1 70 21.1 74 74 SSW 6 9 30.04 1017 10 16 0.00 0.00
1:53 pm 13:53 Partly Cloudy 80 26.7 71 21.7 74 74 SE 5 7 30.03 1017 10 16 0.00 0.00
2:24 pm 14:24 Mostly Cloudy 81 27.2 71 21.7 72 72 SSE 7 11 29.99 1016 10 16 0.00 0.00
2:53 pm 14:53 Mostly Cloudy 82 27.8 71 21.7 69 69 SW 6 9 30.00 1016 10 16 0.00 0.00
3:21 pm 15:21 Mostly Cloudy 82 27.8 70 21.1 67 67 SSW 6 9 29.97 1015 10 16 0.00 0.00
3:33 pm 15:33 Mostly Cloudy 81 27.2 70 21.1 69 69 S 3 6 29.96 1015 10 16 0.00 0.00
3:40 pm 15:40 Mostly Cloudy 82 27.8 70 21.1 67 67 S 7 11 29.96 1015 10 16 0.00 0.00
3:53 pm 15:53 Mostly Cloudy 82 27.8 70 21.1 67 67 VRB 3 6 29.97 1015 10 16 0.00 0.00
4:53 pm 16:53 Partly Cloudy 83 28.3 70 21.1 65 65 WSW 6 9 29.96 1015 10 16 0.00 0.00
5:53 pm 17:53 Mostly Sunny 81 27.2 70 21.1 69 69 SSW 5 7 29.95 1014 10 16 0.00 0.00
6:53 pm 18:53 Sunny 81 27.2 70 21.1 69 69 SE 5 7 29.96 1014 10 16 0.00 0.00
7:53 pm 19:53 Sunny 79 26.1 70 21.1 74 74 SE 5 7 29.95 1014 10 16 0.00 0.00
8:53 pm 20:53 Mostly Clear 76 24.4 71 21.7 85 85 ENE 3 6 29.96 1014 10 16 0.00 0.00
9:53 pm 21:53 Mostly Clear 75 23.9 71 21.7 88 88 ESE 5 7 29.97 1015 10 16 0.00 0.00
10:53 pm 22:53 Cloudy 75 23.9 70 21.1 84 84 SE 3 6 29.97 1015 10 16 0.00 0.00
11:53 pm 23:53 Partly Cloudy 74 23.3 70 21.1 87 87 ESE 5 7 29.97 1015 10 16 0.00 0.00

Powered by AerisWeather